Location: Balaclava NSW 2575, Australia
(34.4510°S, 150.4953°E)
Time: 21:09:28
(UTC+10:00)

Hubble Space Telescope - Pass Details

Date: 18 May 2021
Orbit: 535 x 539 km, 28.5° (Epoch: 19 June)

Event Time Altitude Azimuth Distance (km) Brightness Sun altitude
Rises 17:53:25 0° 305° (NW) 2,680 5.9 -10.7°
Reaches altitude 10° 17:55:57 10° 318° (NW) 1,792 4.4 -11.2°
Maximum altitude 17:59:22 25° 14° (NNE) 1,119 2.4 -11.9°
Enters shadow 18:02:23 12° 66° (ENE) 1,670 2.8 -12.5°
